Station SRST2 - Sabine Pass, TX Image indicating link to RSS feed of recent meteorological observations for station SRST2


Conditions at SRST2 as of
(2:00 am CDT)
0700 GMT on 04/23/2024:
     

Click on the graph icon in the table below to see a time series plot of the last five days of that observation.

5-day plot - Atmospheric Pressure Atmospheric Pressure (PRES):30.12 in
5-day plot - Pressure Tendency Pressure Tendency (PTDY):-0.04 in ( Falling )
5-day plot - Air Temperature Air Temperature (ATMP): 65.8 °F
 
Previous observations
TIME
(CDT)
5-day plot - Wind Direction
WDIR
 
5-day plot - Wind Speed
WSPD
kts
5-day plot - Wind Gust
GST
kts
5-day plot - Wave Height
WVHT
ft
5-day plot - Dominant Wave Period
DPD
sec
5-day plot - Average Wave Period
APD
sec
5-day plot - Mean Wave Direction
MWD
 
5-day plot - Atmospheric Pressure
PRES
in
5-day plot - Pressure Tendency
PTDY
in
5-day plot - Air Temperature
ATMP
°F
5-day plot - Water Temperature
WTMP
°F
5-day plot - Dew Point
DEWP
°F
5-day plot - Salinity
SAL
psu
5-day plot - Visibility
VIS
nmi
5-day plot - Tide (above MLLW)
TIDE
ft
2024-04-23 01:00 am-------30.14-0.02 65.7-----
2024-04-23 12:00 am-------30.15+0.00 65.5-----
2024-04-22 11:00 pm-------30.16+0.02 64.9-----
2024-04-22 10:00 pm-------30.16+0.01 64.9-----
2024-04-22 09:00 pm-------30.15-0.01 64.8-----
2024-04-22 08:00 pm-------30.14-0.03 64.8-----
2024-04-22 07:00 pm-------30.15-0.04 65.3-----
2024-04-22 06:00 pm-------30.16-0.04 65.8-----
2024-04-22 05:00 pm-------30.16-0.07 65.7-----
2024-04-22 04:00 pm-------30.18-0.06 65.8-----
2024-04-22 03:00 pm-------30.21-0.07 64.9-----
2024-04-22 02:00 pm-------30.23-0.05 64.6-----
2024-04-22 01:00 pm-------30.25-0.03 64.9-----
2024-04-22 12:00 pm-------30.28+0.00 64.6-----
2024-04-22 11:00 am-------30.29+0.04 64.2-----
2024-04-22 10:00 am-------30.28+0.05 63.3-----
2024-04-22 09:00 am-------30.27+0.06 61.2-----
2024-04-22 08:00 am-------30.25+0.05 58.3-----
2024-04-22 07:00 am-------30.23+0.04 54.3-----
2024-04-22 06:00 am-------30.21+0.02 54.7-----
2024-04-22 05:00 am-------30.20+0.00 55.9-----
2024-04-22 04:00 am-------30.19-0.02 56.7-----
2024-04-22 03:00 am-------30.19-0.02 59.2-----
2024-04-22 02:00 am-------30.21+0.00 59.5-----